Theta_e
311 311 310 309 309 308 308 311 312 313 317 318 315 312 312 314 316 316 314 315 315 312 312 313 312 312 313 313 314 316 316 316 316 315 315 315 316 317 317 318 318 315 314 313 312 312 312 312 313 314 316 316 317 318 320 322 323 323 323 323 323 323 321 320 319 320 321 321 322 321 321 321 321 320 320 320 319 320 320 320 319 319 318 318 318 317 317
312 312 310 309 309 310 310 311 311 313 315 316 315 313 313 314 314 314 313 313 312 309 309 312 311 309 309 310 312 315 315 315 315 315 315 315 314 314 314 315 316 315 314 313 313 313 312 312 311 311 311 311 312 314 316 317 319 320 321 322 323 321 319 319 321 321 320 319 319 319 319 319 319 319 319 319 319 318 318 317 317 316 316 316 318 318 318
315 312 311 309 309 311 312 312 312 315 315 315 316 315 315 316 312 310 313 314 312 309 307 308 309 307 308 309 309 310 311 313 315 314 314 315 315 314 313 313 313 314 314 313 313 313 313 312 312 311 310 309 309 310 312 313 313 313 314 316 316 314 313 315 317 315 312 312 312 313 313 314 315 315 315 315 315 315 314 314 314 313 312 312 314 315 316
315 312 311 311 312 314 316 315 313 316 315 312 312 312 313 315 312 312 316 315 311 308 306 306 306 306 307 307 307 308 309 311 312 312 313 314 315 315 314 313 313 312 312 312 312 312 312 312 312 311 311 310 308 307 308 310 310 311 310 310 310 309 309 310 311 309 308 310 309 309 311 311 311 311 311 311 312 312 313 313 313 312 312 312 314 315 316
315 312 313 316 317 316 317 315 311 313 313 311 310 309 308 310 312 315 317 312 307 307 306 306 306 305 305 305 306 307 309 310 310 310 311 312 313 314 314 314 312 311 311 311 310 310 310 311 311 311 310 310 309 308 307 308 309 309 308 309 309 308 308 308 308 308 309 310 308 309 311 311 310 310 311 312 312 312 313 313 312 311 311 312 313 315 316
311 310 317 319 316 313 313 313 311 310 309 308 308 306 306 307 309 311 311 308 306 306 305 306 306 304 304 304 304 305 307 309 310 310 310 311 312 313 313 312 311 310 310 309 308 307 307 308 309 310 309 309 308 308 308 308 308 306 306 307 308 307 307 307 307 308 309 308 308 308 310 309 309 309 310 311 311 311 309 309 309 310 310 310 311 312 313
312 312 317 316 311 310 311 310 309 308 306 305 305 304 304 305 306 306 306 306 305 304 303 304 305 303 303 303 303 304 305 306 309 310 310 311 311 311 311 311 309 308 308 308 308 307 307 307 307 308 308 308 308 308 307 307 307 306 306 307 307 307 307 307 307 307 307 307 306 307 308 308 308 307 306 305 305 305 304 304 305 306 306 306 306 308 310
312 310 313 313 310 309 309 309 308 307 307 309 309 306 304 304 305 305 306 305 303 302 302 303 304 304 303 303 302 302 303 304 305 306 308 309 310 310 310 310 309 309 308 308 308 307 307 307 307 307 307 307 307 308 308 307 307 307 307 307 306 307 307 307 307 307 306 306 306 306 307 307 306 305 303 302 302 302 301 301 301 301 301 301 302 304 305
312 312 311 311 309 306 308 309 307 305 307 309 310 308 304 303 303 303 304 304 302 301 302 303 304 304 303 303 302 301 302 302 302 303 304 306 307 308 307 307 308 308 308 308 308 307 307 307 307 307 306 306 306 307 307 308 308 307 307 307 307 307 307 306 306 306 306 306 307 307 307 306 305 304 303 303 302 302 302 302 301 300 300 300 301 301 301
314 315 310 309 308 307 307 307 305 304 304 304 307 309 305 302 301 301 302 304 301 300 302 302 302 304 304 304 302 301 301 301 301 302 302 302 304 304 304 304 305 305 306 306 307 306 306 306 306 306 306 306 306 306 306 306 307 307 307 307 307 307 307 307 307 306 306 306 306 307 307 306 305 304 304 304 303 303 303 303 303 302 300 300 300 300 300
311 314 312 310 309 307 306 306 304 303 302 302 306 309 305 302 301 300 300 301 300 300 301 301 301 304 305 303 301 300 300 300 300 301 301 300 301 301 301 302 303 303 304 304 305 304 304 304 304 304 305 306 306 306 306 306 306 306 307 307 307 307 306 307 307 307 306 306 306 306 307 306 305 305 305 305 305 305 304 304 304 303 302 300 300 300 300
311 312 312 309 307 305 305 305 304 302 302 303 306 308 305 301 300 300 299 299 299 300 300 300 301 302 302 301 300 299 299 300 300 300 300 300 300 300 300 301 301 301 302 302 303 303 303 303 303 303 303 304 304 305 305 305 305 305 305 305 306 305 305 306 306 306 306 306 306 306 306 306 306 306 305 305 305 304 304 304 305 304 303 302 300 300 301
311 311 309 306 306 306 304 304 303 301 303 306 307 307 304 300 298 299 298 298 299 298 298 299 299 300 299 299 299 299 299 299 299 299 299 299 299 299 299 300 300 300 300 300 301 301 302 303 303 303 303 303 302 303 303 304 304 304 304 304 304 304 304 305 305 305 305 305 306 306 306 306 305 305 305 304 304 304 305 305 305 305 305 304 302 301 301
309 309 308 305 305 305 303 302 301 301 306 309 307 303 300 298 298 298 298 298 298 298 298 298 298 298 298 298 299 299 299 299 299 299 299 299 299 299 299 299 299 299 299 300 300 300 301 302 302 302 302 302 302 302 302 302 303 303 303 303 303 304 304 304 304 304 304 304 305 306 306 306 306 305 305 305 305 305 306 306 306 306 306 305 303 302 303
306 307 306 305 304 303 302 302 301 301 303 305 303 300 298 298 298 298 298 298 298 298 298 298 298 298 298 298 298 298 298 299 299 299 299 299 299 299 299 299 299 299 299 299 299 300 300 301 301 301 301 301 302 302 302 302 302 302 302 302 303 303 303 304 304 304 304 304 304 305 305 305 305 305 305 305 305 305 305 306 306 306 305 304 303 304 306
305 304 304 304 303 301 300 300 300 299 299 299 299 299 298 298 298 298 298 298 298 298 298 298 298 298 298 298 298 298 298 298 298 298 298 298 298 298 298 298 298 299 299 299 299 300 300 300 301 300 301 301 301 301 302 302 302 302 302 302 302 303 303 303 303 304 304 304 304 304 304 305 304 305 305 304 304 304 304 305 304 304 304 304 304 306 308
301 300 300 301 301 299 298 299 298 298 298 298 298 298 298 298 299 299 298 299 299 299 299 298 298 298 298 298 298 298 298 298 298 298 298 298 298 298 298 298 298 298 299 299 299 299 300 300 300 300 301 301 301 301 302 302 302 302 302 302 302 302 302 303 303 303 303 303 304 304 304 304 303 303 303 303 303 303 303 303 303 304 304 305 306 307 308
299 299 298 298 298 298 298 298 298 298 298 298 298 298 298 299 299 299 299 299 298 298 298 298 298 298 298 298 298 298 298 298 298 298 298 298 298 298 298 298 298 298 299 299 299 299 299 299 299 300 300 300 300 301 301 301 301 302 302 302 302 302 302 302 302 302 303 303 303 303 303 303 303 303 303 303 303 303 303 303 304 304 305 306 307 307 307
301 299 297 297 297 298 298 298 298 298 299 298 298 298 298 298 299 299 298 298 298 298 298 297 298 298 298 298 298 298 298 298 298 298 298 298 299 299 299 299 299 299 299 299 299 299 299 299 299 299 299 299 299 300 300 300 300 301 301 301 302 302 302 302 302 302 303 303 303 303 303 303 303 303 303 303 304 304 304 304 305 306 306 307 307 308 308
300 298 297 297 298 298 298 298 298 298 298 298 298 298 298 298 298 298 298 298 297 297 297 297 297 297 297 297 297 297 298 298 298 298 298 298 298 298 298 298 298 298 298 298 299 299 299 299 299 299 299 299 299 299 299 299 300 300 300 300 300 301 301 302 302 302 302 302 303 303 303 303 303 304 304 303 304 304 304 304 305 306 307 307 307 307 307
300 298 298 298 298 298 298 298 298 298 298 298 298 298 298 298 298 298 298 297 297 297 297 297 297 297 297 297 297 297 297 297 298 298 298 298 298 298 298 298 298 298 298 298 298 299 299 299 299 299 299 299 299 299 299 299 299 299 300 300 300 300 300 301 301 301 301 301 302 302 302 303 303 303 304 304 304 304 304 304 304 305 306 306 306 305 305
300 298 298 298 299 300 299 297 298 298 298 298 298 297 297 298 297 298 297 297 297 297 297 297 297 297 297 297 297 297 297 297 297 298 298 298 298 298 298 298 298 297 298 298 298 299 299 299 299 299 299 299 299 299 299 300 300 300 300 300 300 300 300 300 300 301 301 301 301 300 301 302 302 303 303 303 303 303 304 304 304 305 305 305 305 305 305
299 298 298 298 298 299 298 297 298 298 297 298 297 297 297 297 297 297 297 297 297 297 296 296 296 296 296 296 296 296 296 296 297 297 297 297 298 298 298 298 298 298 298 298 298 298 298 298 298 298 298 298 298 298 298 299 299 299 299 299 299 300 300 300 300 300 299 299 299 299 299 301 301 302 302 303 303 303 303 304 304 304 304 304 305 306 306
298 298 298 298 298 298 297 297 298 297 297 297 297 297 297 297 297 297 296 296 296 295 295 295 295 295 295 295 295 295 295 295 296 296 296 297 297 297 297 297 297 297 298 298 298 297 297 297 297 297 297 297 297 297 297 297 297 297 296 296 297 297 298 298 299 299 298 298 298 299 299 301 301 302 302 303 303 303 303 304 304 304 305 305 305 305 304
298 298 298 298 297 297 297 297 297 297 297 297 297 297 297 296 296 295 295 295 295 294 294 294 294 294 293 293 293 293 293 293 294 295 295 295 296 296 296 296 296 297 297 297 297 297 296 296 296 296 296 296 296 296 296 296 296 296 296 296 296 296 296 296 297 298 299 299 300 300 300 301 302 303 303 303 303 303 303 304 305 305 305 305 304 303 303
298 297 297 297 297 297 297 297 297 297 297 297 297 297 296 295 295 294 294 294 293 292 292 292 292 291 291 291 290 290 290 291 292 292 293 294 294 295 295 295 295 295 295 295 296 296 296 296 296 296 296 296 296 296 296 296 296 297 297 297 297 297 297 297 297 297 299 300 301 301 301 302 302 303 303 303 303 303 304 304 305 305 304 304 303 303 302
297 297 297 297 297 297 297 297 297 297 297 296 296 295 295 294 294 293 293 292 291 291 291 291 290 290 290 290 289 289 289 289 289 290 291 292 292 293 293 293 293 293 294 294 294 295 295 295 295 295 296 296 297 297 297 297 297 297 297 298 297 298 298 298 297 297 298 300 301 302 302 302 303 303 303 303 303 304 304 304 304 304 303 302 302 301 300
297 297 297 297 297 297 297 297 297 297 296 295 295 294 294 293 292 292 292 291 291 291 291 291 290 290 289 289 289 289 289 289 289 289 289 290 290 291 292 292 292 293 293 293 294 294 295 295 296 296 297 297 297 297 297 297 297 297 297 297 297 297 297 298 298 297 298 299 301 302 302 302 303 303 303 303 304 304 303 303 304 303 302 301 300 299 298
297 297 297 297 297 297 297 297 296 296 295 295 294 293 293 292 292 291 291 291 291 291 291 290 290 289 289 289 289 289 289 290 290 289 289 290 291 291 292 292 293 293 294 294 294 295 296 297 297 297 297 296 296 296 296 297 296 297 297 297 297 297 297 297 298 298 297 298 299 300 301 302 303 303 303 304 304 303 303 303 303 302 301 300 299 297 296
297 297 297 297 297 296 296 296 295 295 295 294 293 293 292 292 291 292 291 291 291 291 291 290 290 290 290 289 289 290 290 290 290 290 290 291 292 292 292 293 294 294 294 294 295 296 297 297 296 296 296 296 296 296 296 296 297 297 297 297 297 297 297 296 297 297 297 298 298 299 301 302 302 302 303 303 303 303 302 302 301 300 300 299 297 295 295
297 297 297 296 296 295 295 295 295 294 294 293 293 292 292 292 292 291 291 291 292 291 291 291 290 290 290 289 290 290 290 290 291 291 291 292 292 292 293 293 294 294 295 295 296 297 297 296 296 296 296 296 296 295 295 296 297 298 299 299 299 298 297 296 296 297 297 298 299 299 300 301 302 302 301 301 301 301 300 300 299 299 297 296 295 295 295
297 296 296 296 296 295 295 295 295 294 294 293 293 293 292 291 291 291 291 291 292 292 291 291 290 290 290 289 290 290 290 291 291 291 291 292 292 292 293 294 294 295 295 296 297 296 296 296 296 296 296 296 296 295 295 295 297 299 299 299 299 298 297 296 297 297 298 299 300 300 300 301 302 301 300 299 299 299 299 298 297 296 296 295 295 296 296
297 296 296 296 296 295 295 295 294 294 293 293 292 292 291 290 290 291 291 291 291 291 292 291 291 290 290 290 290 290 291 291 291 292 292 292 292 293 293 294 295 295 296 297 297 296 296 297 297 297 297 296 296 296 295 296 297 299 300 299 298 298 297 297 298 298 299 300 300 300 301 301 301 300 299 298 298 297 297 296 295 295 295 295 295 295 295
297 296 296 296 295 295 295 295 294 294 293 292 291 290 289 289 290 291 290 291 291 291 291 291 291 291 290 290 290 290 291 291 292 292 292 292 293 293 294 295 295 296 296 297 297 297 297 297 297 297 297 296 296 296 295 295 296 298 299 299 298 298 298 298 298 299 300 300 300 300 300 299 298 297 297 296 296 295 295 295 295 295 295 295 295 294 295
296 296 295 295 294 295 295 294 294 294 294 292 291 290 289 289 290 290 290 291 291 291 291 291 292 291 291 290 290 290 290 291 291 292 292 293 293 294 294 295 296 296 297 297 297 297 297 297 297 297 297 296 296 296 296 295 296 296 297 297 297 296 296 297 297 298 298 298 297 297 297 297 296 295 295 295 295 295 295 296 296 295 295 296 296 296 296
297 296 295 294 294 294 295 295 294 294 294 293 293 292 290 289 290 290 290 291 291 291 291 291 291 291 291 290 290 290 290 290 291 292 293 293 293 294 295 296 296 297 297 297 297 297 297 297 297 297 297 297 297 297 296 296 296 296 296 296 296 296 296 296 296 296 296 296 295 295 296 296 295 295 295 295 296 296 296 296 296 296 297 297 297 297 296
296 295 294 294 295 295 295 294 294 294 294 294 294 293 291 290 290 290 290 291 291 291 290 291 291 291 290 290 290 291 291 291 291 291 292 293 293 294 295 296 296 296 297 297 297 297 297 297 297 297 297 297 297 297 297 297 297 296 296 296 296 296 296 296 296 296 296 296 296 296 296 296 296 296 296 296 297 297 297 297 297 297 297 297 297 296 296
296 295 295 295 295 294 294 294 293 293 293 293 293 292 291 290 290 290 290 290 291 291 290 290 290 291 291 290 289 290 291 292 292 292 292 293 294 295 295 296 296 296 296 296 296 296 296 296 297 297 296 296 297 297 297 297 297 297 297 297 297 297 297 297 297 297 297 297 297 297 297 297 297 297 297 297 297 297 297 297 297 297 296 296 295 295 294
295 295 295 295 295 294 293 293 293 293 292 292 292 292 291 290 290 290 289 290 291 291 290 290 289 290 290 290 289 288 289 291 292 293 293 293 294 294 294 294 295 295 295 295 295 295 295 296 296 297 297 297 297 297 297 297 297 297 297 297 297 297 297 297 297 297 297 297 297 297 297 297 297 297 297 297 297 297 297 297 297 296 295 295 295 294 294
295 295 295 295 294 293 293 293 293 293 292 292 292 292 291 290 290 290 289 290 291 291 290 290 289 289 289 290 289 288 287 288 289 291 292 293 294 294 294 294 294 294 294 295 295 295 295 295 296 296 297 297 297 296 296 296 296 297 297 297 297 297 297 297 297 297 297 297 297 297 297 297 297 297 297 297 296 296 296 296 295 295 295 295 294 294 294
295 295 295 295 294 293 293 293 294 293 293 292 292 292 291 290 290 289 288 289 291 291 291 290 290 289 288 288 288 288 287 287 288 289 290 291 292 293 293 293 293 294 294 295 295 295 295 295 295 295 295 295 295 295 295 295 295 295 295 296 296 296 296 296 296 296 296 296 296 297 297 297 297 296 296 296 295 295 295 295 295 294 294 293 293 292 292
295 295 295 294 294 294 294 294 294 293 293 292 292 292 291 290 290 289 288 289 290 291 291 291 290 290 288 287 287 287 287 287 288 288 288 289 289 290 290 290 291 292 294 295 295 295 295 295 295 295 295 295 295 295 295 295 295 295 295 295 296 296 296 296 296 296 296 296 296 296 296 296 295 295 295 295 295 294 294 294 293 293 292 292 291 291 291
295 295 295 295 294 294 294 295 294 294 293 293 292 292 292 290 290 289 289 289 289 290 291 291 290 290 289 287 286 286 286 286 287 287 288 288 288 288 289 289 289 290 291 293 294 295 295 295 296 295 295 295 295 295 295 296 296 295 295 295 295 296 296 296 296 295 295 296 295 295 295 295 294 294 294 294 294 293 293 293 292 292 291 291 291 290 290
296 296 295 295 295 295 294 295 295 294 294 293 293 292 292 291 290 290 290 289 288 288 290 291 290 290 289 288 286 286 286 286 286 286 287 287 287 287 287 288 288 288 288 289 291 292 293 293 294 294 294 295 295 295 296 296 296 296 296 295 295 295 296 296 295 295 295 295 295 294 294 294 294 294 294 293 293 293 292 291 291 291 290 290 290 290 290
296 296 296 295 295 295 295 295 294 294 294 294 293 292 292 292 291 290 289 288 287 287 289 290 290 290 289 288 286 285 285 285 285 286 286 286 287 287 286 286 287 287 287 287 288 289 289 290 290 290 291 292 292 293 293 293 294 294 294 294 294 294 294 294 294 294 294 293 293 293 293 293 292 292 291 291 290 290 290 289 290 290 290 290 290 291 291
296 296 296 296 296 295 295 295 295 295 295 294 293 292 292 292 292 290 288 287 287 287 287 288 289 289 288 288 287 286 285 285 285 285 286 286 286 286 286 286 286 286 286 287 287 287 288 288 288 288 288 289 289 289 290 290 290 290 291 291 291 291 291 291 290 290 290 290 290 290 290 289 289 289 289 289 289 289 289 290 290 290 291 291 292 292 293
295 296 296 296 296 295 295 295 295 296 295 294 293 292 292 292 293 291 289 288 289 288 287 287 287 287 287 287 287 286 286 286 285 285 285 285 285 285 285 285 285 285 285 286 286 287 287 287 287 287 288 288 288 288 288 288 288 288 288 289 289 289 289 289 289 288 288 288 288 288 288 288 288 288 288 288 289 289 290 290 290 290 291 291 291 291 292
295 295 296 296 296 296 296 295 295 296 295 294 294 292 292 293 293 291 289 290 291 290 289 288 287 286 286 286 286 286 286 286 286 286 285 285 285 285 285 285 286 286 286 286 286 286 286 286 286 286 287 287 287 287 287 287 287 288 288 288 288 288 288 288 288 288 288 288 287 287 286 287 287 287 287 287 288 288 289 289 289 289 289 290 290 291 291
294 295 296 296 296 296 296 295 295 295 295 295 295 293 293 293 293 291 290 290 291 291 290 290 289 288 287 286 286 286 286 286 286 286 286 286 285 285 285 286 286 286 286 286 286 286 286 285 285 285 286 286 286 286 286 286 286 287 287 287 287 287 287 287 287 287 287 286 286 286 286 286 286 286 286 286 286 287 287 287 287 287 288 288 289 291 291
294 295 295 296 296 296 296 296 296 295 295 295 296 295 294 293 293 292 291 291 291 291 291 290 290 289 288 287 287 287 286 286 286 286 286 286 286 286 286 286 286 286 286 286 286 286 285 285 285 285 285 285 285 285 285 285 285 286 286 286 286 286 286 286 286 286 286 285 285 285 286 286 285 285 284 284 285 285 286 286 286 286 286 287 288 289 290
294 294 295 295 295 296 296 296 296 296 296 296 296 296 294 293 293 293 292 291 291 291 291 290 290 289 289 287 287 287 287 287 287 287 286 286 286 286 286 286 286 286 286 286 286 286 285 285 285 285 285 285 285 285 285 285 285 285 285 285 285 285 285 285 285 285 285 285 284 285 285 285 284 284 284 284 284 285 285 286 286 286 286 287 287 288 289
294 294 294 294 295 295 296 295 296 296 296 296 296 296 296 295 293 293 292 292 291 291 291 291 290 290 289 288 287 287 287 287 287 286 287 287 286 286 286 286 286 286 286 286 285 285 285 285 285 285 285 285 285 285 285 285 285 285 285 284 284 284 284 284 284 284 284 284 284 284 284 284 284 283 283 284 284 284 285 285 286 286 287 287 288 288 288
Wind_Speed
2 2 2 4 5 4 4 5 6 5 5 6 6 3 1 4 5 2 0 7 6 3 6 6 6 6 4 6 8 12 14 14 13 12 12 12 13 16 17 17 16 14 13 12 10 9 7 7 8 9 9 9 10 13 14 15 16 16 18 19 18 18 17 16 15 15 14 13 14 17 21 21 20 20 20 20 19 19 19 18 17 17 17 17 17 17 17
3 4 5 7 8 6 5 6 5 3 4 6 5 3 3 7 6 4 7 11 6 3 5 5 6 7 10 15 14 11 10 10 11 12 12 10 7 11 17 17 17 16 15 14 13 11 9 7 6 7 6 7 9 12 13 14 14 14 14 14 13 12 12 13 13 13 12 12 12 13 14 13 13 13 13 13 13 13 12 12 11 10 10 11 12 12 13
4 4 5 7 7 6 6 7 7 5 5 5 5 3 4 7 6 4 9 11 5 5 6 6 7 10 16 21 20 18 17 13 12 11 12 9 6 9 14 15 15 16 17 17 16 14 12 9 6 5 4 5 7 10 11 12 12 11 11 11 11 11 12 13 13 12 11 11 10 10 10 10 10 10 9 9 9 8 8 8 7 7 7 8 8 8 8
3 3 5 6 6 7 7 7 9 8 5 6 5 4 4 4 5 4 7 7 1 5 6 9 13 16 19 18 18 20 21 19 17 14 9 7 7 10 12 12 13 16 17 17 16 16 15 13 10 7 6 6 6 8 10 10 10 10 9 10 10 10 11 12 11 10 10 10 10 10 11 10 9 8 8 8 8 8 8 8 8 8 8 8 8 7 8
4 3 4 5 6 6 4 3 5 5 3 8 7 7 8 4 4 5 4 3 3 5 4 9 12 14 16 17 17 18 19 20 20 17 12 6 5 10 12 11 11 15 17 16 15 13 13 13 12 9 8 7 6 6 8 8 9 8 8 9 9 9 10 11 10 11 11 10 10 11 12 11 10 9 9 9 9 9 10 10 10 10 9 9 9 9 9
3 4 3 6 5 2 3 5 4 1 8 13 10 7 8 8 6 4 4 3 1 3 4 7 8 10 15 19 23 22 20 20 19 17 16 12 7 8 11 12 12 14 15 16 15 14 12 10 11 12 12 11 8 7 8 8 7 7 8 10 10 9 9 10 10 11 12 12 11 12 12 12 12 11 11 11 11 12 12 11 11 11 11 12 12 12 12
3 1 5 5 1 4 5 3 3 4 12 16 15 11 10 10 8 7 6 4 4 5 7 7 10 15 20 25 29 29 24 21 19 18 17 15 13 11 10 12 10 8 8 10 11 10 9 8 9 12 12 11 9 8 7 7 6 5 7 9 9 9 10 9 9 10 12 12 12 12 12 12 12 11 11 11 11 10 10 9 10 10 10 11 12 12 13
2 1 3 2 5 4 0 3 4 5 6 8 11 11 10 9 6 5 5 5 6 9 12 10 10 14 22 28 29 28 25 23 22 21 19 15 14 13 11 8 6 5 5 7 8 8 5 4 7 11 9 7 7 7 6 6 6 6 7 8 7 7 8 9 9 9 9 9 10 11 12 12 11 10 9 8 7 7 7 6 7 7 7 9 10 10 11
3 4 3 2 1 1 2 4 3 2 2 2 4 6 4 6 7 5 4 5 8 11 16 13 5 7 16 21 20 23 23 21 21 22 20 17 14 12 12 9 6 4 2 2 2 1 3 7 3 4 4 2 2 4 5 7 7 7 7 7 6 6 6 7 8 9 9 9 9 10 11 10 9 8 7 7 7 7 7 8 8 7 8 9 10 10 10
3 5 2 1 2 4 3 3 5 5 6 3 5 6 3 4 9 9 5 5 7 9 14 17 9 5 8 8 9 17 21 17 17 18 18 18 15 12 13 13 9 7 5 3 2 3 7 10 9 5 4 5 4 4 4 5 7 8 8 8 7 7 6 7 8 9 10 10 10 11 11 11 11 10 9 10 10 10 11 12 11 10 10 10 11 12 12
3 5 4 3 4 4 4 5 8 12 14 5 4 6 3 4 10 12 7 7 9 8 11 17 15 9 5 2 7 14 17 14 15 15 14 15 14 12 13 14 12 10 9 6 4 4 5 6 7 8 10 12 12 11 10 8 7 8 9 10 9 8 7 7 8 9 10 11 11 12 13 13 13 12 12 13 13 14 15 15 14 14 14 13 13 13 14
1 3 3 1 1 1 2 5 8 14 15 7 5 4 2 4 10 14 12 12 13 11 12 15 12 6 2 3 8 13 12 10 11 12 11 12 12 11 12 12 11 11 10 8 7 7 7 7 8 8 10 12 12 12 13 13 12 11 12 14 14 13 12 10 9 9 9 10 12 12 13 13 13 14 15 16 17 18 17 16 16 17 17 17 16 15 15
2 3 3 2 0 1 3 6 10 13 10 5 4 5 4 3 10 15 17 16 16 15 15 13 8 4 5 6 9 11 11 10 11 11 11 10 10 10 11 11 11 11 10 9 9 9 9 9 10 10 11 11 10 10 9 12 14 14 15 16 16 17 17 16 15 13 12 13 14 14 15 16 17 18 18 18 18 18 18 18 19 20 19 20 20 19 17
3 2 3 2 1 2 4 6 11 11 4 1 2 3 4 9 11 13 16 16 15 15 14 13 10 10 10 9 10 11 12 13 13 13 14 13 12 12 12 12 13 13 13 12 12 12 11 11 12 13 13 13 12 12 11 11 12 13 15 15 15 16 17 18 18 17 16 16 15 15 15 17 18 19 19 19 19 18 18 20 21 21 21 23 23 20 18
2 2 3 3 1 3 5 6 8 9 4 2 4 8 10 10 10 11 12 12 12 12 12 12 12 12 12 12 13 13 13 14 15 16 17 17 17 16 16 16 16 16 16 15 14 13 13 13 13 14 15 15 14 13 12 11 11 12 13 15 16 16 16 17 18 18 19 19 17 16 16 16 17 18 18 18 19 18 19 20 21 22 23 24 23 20 17
2 2 3 1 2 2 7 7 5 6 8 10 11 10 9 9 10 10 9 9 11 11 11 12 12 13 14 15 16 17 17 18 19 20 20 21 21 21 21 20 20 19 19 19 16 13 10 10 11 13 14 15 14 13 12 12 13 13 13 13 14 14 14 15 16 17 19 20 20 20 19 18 19 19 18 18 18 19 20 22 23 24 25 24 21 18 16
4 3 2 2 4 11 18 18 13 12 14 14 12 10 9 9 8 8 7 7 9 10 11 12 13 14 15 16 17 19 20 21 22 23 24 24 24 24 24 23 23 23 23 23 22 19 15 12 11 12 11 11 11 11 11 12 14 15 16 16 15 15 15 15 16 17 19 21 22 22 21 21 23 23 22 22 22 22 23 25 25 25 24 23 20 17 17
5 6 7 7 10 14 17 16 15 16 14 12 11 10 10 8 6 6 7 8 9 10 11 12 12 13 14 16 17 18 19 21 22 22 23 24 24 24 24 24 24 24 24 24 25 25 23 21 19 18 17 15 13 12 12 12 13 14 16 17 18 18 18 18 18 19 19 21 22 23 22 22 23 24 23 22 22 22 24 25 26 25 24 22 21 19 18
3 4 6 5 7 12 16 16 16 16 15 12 10 10 9 8 6 7 10 10 11 12 12 13 14 15 16 16 17 18 19 20 21 21 22 22 21 21 22 22 23 23 23 24 25 25 26 26 26 25 24 23 21 20 19 18 18 18 18 18 19 20 21 21 21 20 20 20 20 20 19 19 20 22 23 23 23 22 22 22 23 24 25 24 22 20 18
3 4 2 4 4 9 15 17 14 14 13 11 9 8 7 7 7 8 9 9 11 12 13 14 15 17 17 18 19 20 20 20 21 20 20 19 18 19 21 21 22 22 23 23 23 23 24 25 26 27 28 28 27 26 25 24 24 24 24 24 24 24 24 23 23 23 23 22 21 20 19 19 19 21 23 24 25 25 24 21 19 21 24 23 20 17 16
2 1 5 9 2 2 11 15 13 12 12 10 9 8 7 7 8 8 8 9 11 13 14 15 16 17 18 19 20 21 22 21 21 21 20 19 19 20 21 21 22 22 23 23 23 23 22 22 23 25 26 28 28 28 27 27 26 26 27 27 28 28 28 28 27 27 27 27 26 24 23 22 21 20 21 23 23 24 24 22 19 19 20 19 17 16 16
1 2 2 5 1 2 7 13 12 11 10 9 10 10 9 10 11 12 13 13 14 14 14 15 16 18 20 20 20 21 21 21 20 20 20 21 21 21 22 22 22 23 22 22 22 22 23 23 23 24 26 27 27 28 28 28 27 27 27 27 28 29 29 29 29 29 28 28 28 28 27 26 25 24 23 23 23 23 22 22 20 20 20 19 18 17 16
3 3 1 2 2 2 6 10 11 9 9 10 11 11 11 12 13 13 14 14 15 15 15 15 16 18 20 20 21 22 22 22 20 18 17 18 20 21 21 21 21 21 21 21 21 22 23 24 26 27 29 29 30 30 31 31 32 32 33 32 33 32 31 31 30 30 30 30 29 29 28 27 26 27 27 26 25 24 23 22 21 21 21 20 18 17 16
2 1 2 2 2 2 5 7 8 8 9 11 11 11 11 12 13 13 13 13 13 14 16 16 16 17 19 20 20 21 23 23 22 19 17 18 19 20 20 20 20 21 21 22 23 25 26 28 29 31 32 33 33 34 34 34 35 36 37 38 38 38 37 35 34 33 32 32 30 29 28 26 25 25 26 26 26 24 23 22 22 21 20 19 18 15 14
1 0 1 2 3 3 4 6 7 8 11 12 12 11 11 11 12 13 13 12 12 14 16 18 18 19 20 22 22 22 23 24 23 22 20 20 20 21 22 21 21 22 22 23 25 26 27 29 30 32 33 34 34 34 34 35 35 36 36 37 38 39 39 38 37 35 32 29 28 28 27 26 25 25 25 26 25 24 23 23 23 21 19 16 13 11 10
1 1 3 4 4 3 4 7 8 8 10 12 11 10 10 11 11 12 13 13 14 15 16 17 18 19 19 20 21 21 22 23 23 23 22 21 21 22 23 23 23 23 24 25 26 27 29 30 32 33 33 32 30 30 30 30 31 31 32 32 32 33 34 35 36 37 34 29 27 27 26 25 25 25 25 25 24 24 25 26 24 21 17 13 9 8 9
1 2 4 3 2 3 5 6 6 5 7 8 8 9 9 10 11 12 12 13 14 14 14 15 16 18 19 20 20 20 20 19 19 19 20 21 23 24 27 29 30 30 29 29 29 29 29 28 27 26 25 23 23 24 26 27 28 29 29 29 29 29 29 29 31 33 35 33 29 26 26 27 26 24 24 23 24 26 27 25 23 20 15 12 11 11 11
1 2 3 2 1 2 2 2 3 4 5 6 7 9 9 10 10 10 10 11 13 14 15 15 16 17 19 19 19 20 20 19 18 16 16 18 20 22 24 26 25 24 23 22 20 18 17 16 16 16 17 19 21 24 25 27 28 29 29 29 28 28 29 29 28 28 31 34 32 28 25 26 25 23 22 24 26 28 25 21 18 16 15 17 17 16 15
1 2 2 1 1 2 2 2 2 3 4 6 8 9 8 7 7 7 8 11 13 15 16 16 16 16 18 18 18 18 19 18 15 14 13 12 10 11 12 12 12 10 9 8 8 7 8 10 11 13 16 17 19 21 22 23 24 25 26 26 26 26 27 28 28 27 26 30 33 30 24 22 24 25 25 26 28 27 22 18 17 18 20 22 22 21 20
1 1 1 1 2 3 2 2 2 2 4 6 8 7 5 5 6 7 8 11 14 15 16 16 16 16 16 17 17 16 16 14 12 11 10 8 6 5 7 8 6 5 4 4 3 3 4 6 8 12 15 17 19 20 20 19 19 18 17 17 18 20 21 22 23 25 24 26 30 30 25 21 24 27 30 29 27 24 21 19 21 22 23 24 23 22 22
2 1 1 2 4 4 1 1 1 2 5 7 7 6 5 6 6 6 7 10 13 16 16 16 15 14 14 14 14 13 11 9 8 7 6 4 3 3 4 4 2 2 3 4 5 6 7 10 13 16 19 21 21 21 20 19 18 14 10 8 10 12 13 14 17 20 22 22 24 26 24 20 19 22 26 26 24 23 22 23 24 24 24 24 23 21 20
3 3 3 4 4 2 1 2 1 2 5 7 6 5 6 6 7 8 9 11 14 15 16 16 16 14 13 12 11 9 6 4 3 2 1 1 1 1 1 1 4 8 10 11 12 11 11 13 15 17 19 21 21 19 18 17 15 11 6 0 4 7 10 13 16 18 20 20 20 22 21 18 18 20 21 21 21 21 22 24 25 24 23 23 22 20 18
5 3 4 4 4 2 4 4 2 2 4 6 5 5 5 6 9 10 12 14 14 15 16 16 18 17 14 11 9 6 4 3 3 3 2 1 1 2 4 7 10 13 14 14 12 10 10 13 15 16 18 20 19 16 14 13 10 7 5 5 6 9 11 14 16 18 19 19 20 20 19 18 19 20 21 20 21 21 22 24 25 24 22 21 20 19 18
5 4 4 5 4 3 6 6 2 2 3 4 5 5 5 7 9 12 13 14 15 16 16 16 17 18 17 13 11 9 7 6 7 7 5 5 5 6 8 10 13 16 15 13 10 9 11 13 15 16 18 20 21 19 16 15 13 11 9 9 9 11 13 15 17 20 22 21 20 19 18 17 19 21 22 23 24 23 24 24 23 22 22 21 20 19 17
5 4 3 3 2 4 6 6 3 1 2 3 4 6 6 7 8 10 12 13 13 15 15 15 15 17 18 16 14 13 12 12 11 11 9 8 7 8 9 12 15 16 14 12 10 11 13 14 15 15 16 20 24 25 23 21 21 20 19 18 18 18 19 19 20 21 22 22 23 24 24 24 25 25 26 26 25 24 23 22 21 21 21 20 19 18 17
6 4 2 3 5 6 5 5 3 1 1 2 3 5 7 7 7 8 9 11 12 13 14 13 13 14 17 17 15 15 15 15 14 13 12 11 10 10 10 12 14 14 12 11 11 11 11 12 14 15 16 17 22 26 27 26 26 25 25 26 26 27 28 28 28 28 28 28 28 29 28 28 26 25 23 23 23 22 21 20 19 19 18 17 16 16 16
5 4 4 6 7 6 4 5 5 3 2 4 4 4 6 7 7 6 6 8 11 12 12 12 11 12 15 17 16 14 14 15 16 16 15 14 13 12 12 13 14 13 12 11 11 10 9 10 12 14 16 18 20 23 26 28 29 29 29 30 31 32 32 32 32 31 29 27 26 26 25 24 24 22 21 20 19 18 18 18 17 17 16 15 13 13 14
4 4 6 7 6 4 2 3 3 3 1 3 4 4 5 5 6 6 5 5 8 9 9 9 10 10 12 15 16 14 13 13 15 16 17 16 15 14 14 14 14 13 13 12 11 9 9 10 10 12 15 18 19 20 21 24 26 27 28 28 29 30 30 29 28 27 25 23 22 21 21 21 20 19 18 16 15 14 15 16 15 15 14 13 12 12 13
6 7 9 9 6 4 2 1 3 3 1 2 4 6 5 3 4 7 5 3 4 6 8 9 9 8 9 11 14 14 14 13 13 14 17 18 18 17 15 14 14 13 12 12 10 9 9 10 11 12 14 15 16 16 17 18 19 21 22 22 23 23 23 22 21 20 19 18 18 18 18 17 17 17 16 16 15 15 15 14 14 13 13 13 13 13 13
9 10 11 9 7 5 4 3 3 2 1 2 3 6 6 4 4 6 4 2 2 4 7 9 10 9 7 8 11 13 13 12 12 12 13 15 17 19 18 17 14 12 11 10 9 9 9 9 11 12 13 13 13 13 13 13 14 15 16 16 16 17 17 17 16 16 15 14 14 14 13 13 13 14 14 15 15 15 15 14 14 14 14 13 13 12 12
10 10 10 9 8 7 5 3 2 2 2 3 4 6 7 5 5 5 4 3 3 2 5 8 10 11 9 9 10 11 12 11 11 11 11 12 14 17 18 18 16 13 12 11 10 9 9 9 10 10 10 10 9 9 9 9 10 11 11 11 11 12 13 13 13 13 13 12 11 11 11 11 11 12 13 14 14 14 15 14 14 13 13 12 12 11 11
8 9 9 7 7 7 5 2 3 3 3 4 5 5 7 6 5 5 5 3 3 2 2 5 8 10 11 10 9 9 9 9 9 10 10 12 13 15 16 16 14 13 13 12 12 12 12 11 10 10 9 8 7 7 7 8 9 9 10 10 9 9 10 10 11 11 11 11 10 10 10 11 11 12 13 13 13 13 13 12 12 11 11 10 9 9 8
7 9 9 8 8 7 4 3 4 5 5 5 5 5 6 6 5 5 5 4 2 3 1 2 5 8 9 10 9 8 9 9 9 8 10 11 12 13 13 13 11 10 11 11 11 12 13 12 12 10 9 8 7 6 7 8 9 9 9 9 8 7 7 8 9 9 9 9 9 9 10 10 10 11 11 12 11 11 11 10 10 9 9 9 8 7 7
7 9 10 10 9 8 6 5 5 5 6 8 8 5 5 6 6 5 4 5 3 3 3 1 3 5 6 7 7 7 8 9 9 8 8 9 11 11 11 10 9 9 9 9 9 10 11 11 11 10 8 7 7 6 6 7 8 8 9 9 8 7 6 6 6 6 6 6 7 7 8 8 8 9 9 9 9 9 9 9 9 9 9 9 8 7 7
7 8 9 10 11 11 10 8 7 6 7 9 9 6 4 5 6 5 3 3 4 3 2 1 1 3 5 7 7 7 7 8 9 8 7 7 9 10 9 8 8 8 8 8 8 9 10 10 9 8 7 6 6 5 5 6 6 6 6 7 7 6 6 5 4 3 3 3 3 4 5 5 5 6 7 8 8 8 7 7 7 7 6 5 5 5 6
8 8 8 9 12 13 13 12 10 8 8 9 9 7 5 5 5 5 2 3 4 4 2 1 1 3 5 6 7 7 7 7 8 8 8 8 9 10 9 8 8 8 7 7 8 8 9 9 9 8 7 6 5 5 5 5 5 4 4 4 3 3 3 3 3 3 3 2 2 2 2 3 3 4 4 4 4 4 4 5 5 5 4 4 4 5 5
9 9 9 10 11 12 13 14 13 11 10 10 11 9 7 6 5 4 0 3 5 5 4 2 2 3 4 5 6 6 6 7 8 9 9 9 9 9 9 8 8 8 8 8 9 9 9 8 8 8 7 6 5 5 5 5 5 5 5 4 4 3 3 2 2 2 2 2 3 3 3 3 4 4 4 4 4 4 5 4 4 4 3 3 3 3 4
9 11 11 11 11 10 10 13 15 14 13 12 12 11 9 7 6 4 4 4 3 3 4 3 3 3 3 4 4 4 5 6 7 9 10 10 9 9 8 8 8 9 9 9 10 10 10 9 8 8 7 6 5 5 5 5 5 5 5 4 4 4 4 4 3 3 4 4 4 4 4 4 5 5 5 5 5 5 5 4 4 4 4 3 3 2 2
11 11 11 12 12 11 10 12 15 16 16 15 13 13 12 10 7 6 6 6 4 2 1 1 2 2 2 2 3 4 5 6 7 8 10 11 10 9 9 9 9 9 9 9 9 10 10 10 9 9 8 8 7 6 6 6 5 5 5 4 4 4 4 4 4 4 4 4 4 4 5 6 5 5 5 5 5 5 5 5 4 4 4 4 5 5 4
14 14 13 14 15 14 13 13 14 16 17 18 16 13 13 13 11 9 8 8 6 5 4 3 2 1 1 2 3 3 4 5 6 8 9 10 10 9 9 9 9 8 8 8 9 9 9 9 9 9 9 9 9 8 8 7 6 5 5 6 5 5 5 5 5 4 4 4 4 4 5 6 5 5 6 6 6 6 6 5 5 6 6 6 6 5 5
15 15 15 15 16 16 16 15 14 13 15 18 17 15 15 16 15 12 10 9 9 9 8 7 6 4 1 2 3 3 4 5 6 7 8 9 9 10 10 9 8 7 7 8 9 9 9 9 9 9 9 9 10 9 9 9 9 8 8 7 7 6 6 6 5 5 5 6 6 6 5 4 3 3 4 5 6 6 5 5 5 6 7 7 6 6 6
16 16 16 15 16 16 17 17 15 14 14 16 18 19 19 18 17 16 14 12 11 12 12 11 9 6 4 2 3 4 5 5 6 7 8 8 9 10 10 9 8 7 7 8 9 9 9 9 10 10 9 10 10 10 10 10 10 10 10 9 9 8 7 6 5 5 5 6 6 6 4 2 1 2 3 4 4 5 5 4 5 5 6 6 7 7 7
Wind_Direction
99 96 40 25 50 55 38 24 2 3 42 70 86 91 178 133 120 198 228 69 74 326 331 356 352 355 54 97 128 146 150 152 152 147 144 148 161 171 173 176 175 166 154 148 144 142 137 133 138 143 141 139 139 144 147 152 163 171 177 185 192 197 203 211 217 219 221 223 222 218 222 230 236 238 239 241 243 243 241 240 241 243 246 250 253 254 253
29 26 41 50 52 45 40 31 5 18 87 100 101 86 79 90 98 146 111 83 67 334 316 325 336 0 51 74 86 101 112 131 143 139 132 121 123 151 157 162 171 174 172 165 159 158 158 153 145 134 131 134 137 142 144 148 157 166 174 186 196 200 200 201 205 211 215 217 218 216 217 220 221 220 221 223 224 225 226 227 229 234 239 244 249 252 251
344 351 49 57 59 66 59 25 1 13 56 65 64 40 42 73 77 87 90 80 49 344 335 348 15 43 59 61 61 62 68 88 112 124 137 139 128 137 141 144 154 166 173 173 169 167 165 165 164 154 145 143 144 145 144 145 149 153 165 181 189 191 188 188 194 198 197 195 194 193 194 192 191 194 196 198 199 201 205 212 218 227 234 239 245 252 255
303 324 50 48 55 68 57 22 355 351 23 58 58 26 24 103 130 102 73 76 30 310 347 35 50 57 61 56 50 55 60 70 79 84 107 155 183 176 164 156 151 149 153 157 161 164 167 169 168 167 166 153 145 147 150 155 156 155 162 166 166 173 179 182 186 184 177 177 179 180 181 183 188 194 198 204 209 213 219 225 231 238 244 249 251 254 259
286 305 54 58 52 45 14 332 317 319 50 79 64 24 12 37 121 119 102 130 209 279 2 61 61 58 63 59 52 54 60 66 70 69 70 87 181 191 187 179 158 147 143 137 132 136 150 164 167 168 171 165 156 155 157 161 162 163 173 171 164 170 180 183 187 185 184 187 187 185 186 192 200 202 206 212 219 227 235 238 242 247 253 258 262 265 266
249 282 43 57 51 37 255 261 284 325 95 89 76 42 15 16 44 81 111 132 202 334 41 77 81 76 75 68 59 56 61 67 70 70 66 67 96 145 161 155 135 129 134 130 118 105 101 124 149 157 162 160 158 163 166 174 178 173 177 180 180 185 189 190 192 192 193 197 196 194 199 206 211 211 214 219 226 236 243 245 248 254 258 263 266 269 272
180 291 51 59 252 219 211 260 343 94 107 98 85 62 29 22 30 45 53 38 360 11 40 73 103 94 78 68 60 55 57 62 67 71 68 67 79 96 122 137 124 108 115 120 120 110 89 87 120 142 156 161 167 178 181 187 198 190 179 184 195 204 203 203 206 205 206 210 210 207 209 215 221 224 226 226 227 232 237 240 247 254 259 263 263 263 267
152 106 88 151 227 225 148 2 12 73 88 76 74 59 25 10 15 32 43 19 358 13 28 55 115 104 72 62 56 53 55 55 55 59 61 62 71 75 80 102 116 115 121 120 123 129 115 77 110 126 134 148 170 183 186 188 198 201 197 199 206 211 212 217 221 221 220 220 220 221 221 222 228 235 236 230 225 229 238 246 254 262 265 266 264 262 260
143 140 162 193 229 256 357 351 350 45 5 334 103 96 44 2 0 14 34 13 6 18 25 36 102 119 67 54 44 42 48 49 47 49 51 53 63 67 61 63 79 94 122 206 181 125 329 312 293 133 114 107 159 167 178 190 198 203 207 208 206 207 215 224 230 235 238 235 232 234 236 240 248 254 256 257 259 263 269 271 270 272 273 270 267 268 267
115 115 142 146 180 217 242 294 296 314 325 290 149 115 73 350 353 11 39 23 12 25 30 29 35 77 65 42 15 29 37 39 42 44 43 46 52 50 40 36 40 43 14 313 297 343 331 312 300 292 287 275 248 205 197 202 207 213 216 214 211 213 222 231 237 244 247 242 236 237 244 258 269 275 280 284 285 283 284 283 277 274 276 273 269 269 271
115 122 148 171 185 213 246 269 295 326 335 335 116 96 63 326 341 358 22 25 15 26 41 38 40 55 63 342 345 20 27 26 33 35 31 34 34 27 23 24 28 27 12 357 351 336 315 302 302 300 290 282 272 259 251 245 243 241 237 233 231 233 237 237 236 239 240 236 236 239 247 258 268 275 282 286 285 283 284 281 276 275 282 284 277 270 267
77 120 129 141 152 170 267 267 303 329 335 354 91 119 238 321 354 9 31 38 30 34 48 51 54 65 67 336 351 10 14 11 20 23 20 20 15 9 10 10 11 10 1 350 338 324 309 297 293 292 294 296 291 277 262 254 258 264 259 255 253 252 252 249 243 242 242 240 240 243 245 250 258 267 274 277 276 278 280 279 277 280 287 293 290 281 274
41 75 93 92 157 293 279 288 323 334 339 30 101 193 230 1 28 39 47 44 35 34 40 46 49 38 29 12 357 357 355 350 354 359 357 353 350 351 353 350 347 343 338 333 328 321 311 300 292 289 294 301 303 295 273 255 258 265 264 261 260 258 258 258 257 258 259 257 256 259 259 261 265 269 272 273 273 275 277 279 281 283 286 294 296 289 280
35 80 113 109 52 316 281 304 350 7 26 125 162 150 89 52 47 49 47 41 34 28 28 27 19 9 8 3 353 348 343 338 336 334 334 331 324 321 322 328 332 329 322 318 314 309 302 295 292 291 289 288 288 289 287 276 265 261 257 256 257 257 257 257 258 260 263 262 262 263 263 264 266 268 269 270 270 271 271 273 276 279 283 290 293 289 283
46 58 66 91 128 297 296 312 357 24 60 133 108 93 74 52 43 38 34 32 27 19 12 7 359 348 339 332 330 330 327 323 319 316 319 321 318 313 309 309 314 317 316 313 310 310 309 301 294 289 284 282 280 278 282 283 270 256 248 246 246 249 253 255 255 256 258 261 262 262 262 263 263 264 265 267 269 269 268 269 273 277 282 286 287 286 286
71 56 40 107 211 350 36 58 69 71 69 65 71 77 60 40 36 26 14 13 10 2 354 348 338 330 325 320 316 314 312 310 309 307 308 309 310 310 307 303 302 302 304 304 303 304 311 313 303 290 281 278 275 269 265 264 259 253 249 244 239 239 243 249 252 253 256 259 261 261 260 260 261 263 264 267 270 270 270 272 275 277 279 280 281 281 283
92 106 76 90 84 64 66 73 76 73 63 52 50 57 52 44 36 19 7 3 354 346 340 335 327 322 319 314 311 309 306 303 302 301 300 300 301 302 301 300 298 295 294 295 295 293 293 296 299 296 286 273 263 254 249 250 250 251 253 253 251 247 243 243 247 249 251 253 255 256 258 260 264 268 269 270 271 270 270 271 272 272 271 271 271 273 276
96 63 39 56 76 70 67 66 58 52 51 45 40 43 41 35 24 6 355 346 338 336 331 326 323 321 318 314 311 309 306 302 299 297 296 295 296 295 294 293 292 291 289 289 290 290 289 287 287 290 292 287 277 267 260 258 256 254 254 255 256 255 253 251 249 249 249 250 251 254 257 261 265 267 268 269 268 266 266 267 267 265 264 262 262 264 269
101 58 12 26 79 65 49 44 41 39 41 41 36 33 25 15 4 348 340 335 331 330 326 323 320 316 315 314 310 308 306 304 301 298 296 296 296 295 293 292 290 290 291 291 291 291 289 287 284 283 285 287 287 283 278 274 271 268 264 261 259 257 256 254 252 251 250 250 252 252 252 256 261 264 265 266 266 266 268 269 266 261 257 253 251 253 259
108 141 3 5 101 78 44 36 33 31 32 30 23 21 14 359 346 335 331 329 325 322 321 319 315 310 309 309 308 306 303 300 299 300 298 296 295 292 291 292 291 291 293 296 296 293 290 288 285 282 280 281 282 283 282 280 277 274 271 269 266 262 259 257 256 255 254 254 255 255 253 254 260 264 266 265 265 267 270 271 268 261 256 252 249 253 263
55 121 1 3 31 76 28 28 29 22 18 11 3 359 347 338 338 333 326 321 318 318 317 314 311 308 306 307 306 304 302 299 297 297 295 293 291 289 290 291 291 292 294 294 292 291 288 285 283 281 279 278 279 281 281 279 276 273 270 267 264 262 260 258 257 257 257 257 258 259 257 255 257 263 267 266 265 266 268 268 267 263 260 259 264 272 273
26 235 307 3 33 257 344 5 11 6 3 357 351 347 340 336 334 328 322 317 313 313 314 313 311 308 305 304 303 301 301 301 298 296 294 292 290 288 287 287 286 287 289 288 286 284 283 282 282 281 280 279 278 278 277 276 275 272 269 266 264 261 259 258 256 256 257 257 258 259 258 257 257 261 264 265 265 264 263 262 261 260 261 266 270 271 265
196 226 257 46 100 248 327 351 356 353 350 347 346 345 339 332 327 323 322 320 314 312 313 310 307 304 300 299 298 297 296 297 296 295 292 289 286 284 284 284 284 284 282 280 279 278 279 281 283 284 284 283 281 279 278 277 276 274 273 271 268 264 261 259 259 259 260 260 260 259 258 258 259 260 260 261 262 261 260 259 258 256 258 262 261 257 253
156 47 38 47 40 352 348 352 343 334 335 337 337 337 331 325 322 320 319 318 315 314 311 308 305 302 298 296 296 296 293 290 289 289 287 283 281 282 281 281 281 279 277 274 274 276 279 282 284 286 286 286 286 286 284 282 280 277 275 272 269 266 263 260 259 260 261 261 260 257 255 254 255 257 258 257 257 257 256 254 251 249 250 254 252 246 243
103 345 291 323 332 327 332 332 324 322 326 327 327 326 324 325 324 320 316 316 316 315 312 309 306 302 299 298 298 296 293 288 284 284 284 282 280 279 279 278 277 275 274 274 274 276 278 281 283 285 286 286 287 287 286 284 281 277 273 270 267 265 262 259 255 253 252 253 253 252 252 251 250 251 254 254 253 253 250 245 241 239 239 242 241 234 225
127 265 297 318 329 332 325 318 317 319 319 318 318 317 320 325 325 319 316 316 315 315 315 314 312 312 312 310 306 302 297 291 285 280 279 280 279 279 278 277 275 274 274 275 276 278 280 283 285 286 287 289 289 288 285 283 279 276 273 269 266 264 262 258 254 248 242 240 242 245 247 247 247 249 251 251 251 251 245 236 231 228 221 215 210 203 195
116 336 331 333 349 358 337 317 312 313 313 318 323 322 319 320 317 314 317 323 326 328 328 325 326 328 326 322 319 315 311 306 300 291 283 279 277 276 275 275 276 278 278 279 279 281 283 286 289 291 293 297 295 290 286 283 280 277 274 270 267 264 260 256 253 248 240 233 231 235 240 243 246 247 247 246 247 247 240 229 223 220 206 183 171 171 171
66 7 1 6 20 5 335 291 278 290 309 327 332 323 315 314 316 322 333 341 344 344 340 336 334 332 326 322 320 317 316 317 316 307 296 287 280 277 277 278 280 282 283 284 285 287 291 298 303 304 305 303 298 291 288 284 281 278 275 271 267 263 257 250 247 246 240 232 228 230 236 241 243 242 242 241 240 236 229 220 217 213 191 168 162 164 166
29 18 356 326 299 301 278 242 259 299 332 338 327 316 313 320 331 345 358 2 360 355 349 346 343 336 328 322 318 315 315 318 318 314 312 311 305 299 299 302 302 303 307 312 315 315 316 319 321 321 319 315 311 307 301 294 286 280 276 271 267 261 254 245 238 236 234 228 226 227 231 238 241 240 238 237 233 224 214 206 201 192 176 166 165 164 163
350 354 323 296 311 310 287 250 270 317 343 335 325 325 336 341 343 353 6 10 8 3 357 352 348 342 333 327 323 322 322 322 322 323 327 332 333 325 323 326 330 336 340 345 349 341 338 350 2 4 360 354 346 337 326 314 305 296 284 274 263 253 246 238 230 225 221 219 220 222 225 234 239 234 228 224 217 208 197 189 184 177 169 164 164 164 161
285 287 251 291 315 326 319 223 254 334 344 333 328 334 342 340 345 360 10 11 10 7 4 1 356 350 344 337 331 330 330 329 327 329 335 342 336 318 314 317 348 58 79 92 96 91 73 58 45 31 19 11 3 354 342 328 323 322 308 273 247 233 226 221 216 210 207 209 213 215 218 227 232 225 215 205 194 186 181 177 172 166 160 158 160 163 160
277 274 251 271 299 326 153 199 247 345 342 335 335 340 345 357 18 28 25 21 17 13 11 11 10 5 359 351 345 341 342 355 5 5 2 353 323 324 341 106 107 100 99 102 102 93 76 57 41 25 14 7 2 358 350 339 337 348 1 244 190 184 184 188 191 193 196 200 203 205 210 218 218 211 203 190 178 173 171 166 159 156 155 157 160 161 157
268 252 230 251 275 240 197 206 240 325 334 345 3 16 21 37 46 41 33 30 24 18 15 16 19 20 18 16 17 21 32 51 59 55 48 60 98 105 106 109 104 98 98 105 106 89 62 43 31 25 21 16 11 9 9 6 6 23 55 95 129 148 162 173 180 184 187 191 193 196 202 206 201 193 183 172 164 160 158 154 152 153 156 158 160 160 159
261 244 244 267 277 221 191 192 205 328 350 17 31 35 41 47 44 37 33 30 25 22 17 13 16 24 29 34 42 50 59 68 69 65 62 73 94 106 109 109 105 100 101 107 104 78 54 44 38 37 39 38 37 40 46 52 60 75 90 102 117 136 152 164 173 178 179 177 177 177 176 173 168 161 154 150 148 149 150 151 153 155 158 160 162 165 168
241 239 261 266 212 163 173 190 220 306 2 35 33 26 26 31 32 30 27 23 23 24 21 14 13 22 31 40 52 59 65 72 75 76 78 83 91 106 114 113 109 107 107 106 94 73 61 53 47 45 48 50 51 54 61 69 78 89 98 103 108 115 123 132 141 147 147 143 140 140 140 141 141 141 142 143 145 147 151 153 155 159 163 165 168 171 176
224 231 232 191 174 172 187 216 235 270 5 356 360 11 13 13 19 22 18 18 23 27 24 19 18 22 29 38 49 59 67 75 80 83 88 92 98 112 122 118 112 111 109 100 88 77 68 62 56 53 54 55 57 59 63 69 76 86 94 99 102 105 107 110 113 117 119 123 126 129 132 135 136 137 140 144 147 150 153 154 156 162 167 171 175 182 188
228 227 197 181 183 192 222 252 248 250 324 334 335 354 359 358 4 6 3 14 28 31 27 24 23 25 30 36 42 50 62 74 82 87 92 98 106 118 125 119 112 109 104 94 86 79 72 68 68 67 64 62 62 64 66 70 75 81 87 92 97 101 104 106 108 110 113 116 121 126 130 133 134 136 140 146 149 152 154 157 160 164 169 174 182 189 192
214 203 193 194 199 211 257 271 225 209 287 335 336 339 339 340 349 350 347 4 25 29 25 22 24 29 33 34 37 42 51 61 73 84 91 97 105 115 119 113 107 103 100 95 89 80 70 70 78 84 80 75 73 72 71 72 76 81 85 90 94 98 101 102 103 104 105 108 113 120 126 130 133 138 143 147 149 150 154 160 165 168 170 174 179 182 182
192 188 192 200 211 225 238 193 166 164 189 315 326 341 345 340 340 344 345 8 38 31 23 21 25 34 39 35 36 42 46 48 55 68 79 86 93 99 101 99 97 96 98 99 99 90 76 73 80 89 91 87 85 84 82 78 78 81 85 88 92 94 96 97 98 100 104 109 114 120 125 129 133 138 142 145 150 155 160 167 171 172 173 175 179 184 188
191 193 199 211 223 224 211 187 168 157 210 253 302 340 355 356 335 341 357 76 87 39 28 27 29 35 40 37 37 43 47 46 46 53 66 77 86 91 92 92 95 101 107 110 109 102 90 82 82 87 89 89 88 86 85 81 78 79 82 87 93 96 98 100 102 105 110 116 121 126 131 134 137 141 145 150 156 162 168 172 174 177 180 185 191 197 204
194 202 212 224 221 206 192 191 213 228 231 238 272 323 350 355 339 345 17 85 112 64 35 34 34 35 36 36 39 45 50 51 51 54 63 72 80 84 85 84 86 96 107 114 115 111 103 94 88 87 87 87 83 77 72 68 65 66 71 80 91 100 105 108 111 114 119 125 132 137 142 146 149 151 155 160 165 169 174 178 181 186 193 199 203 207 210
205 215 226 226 209 193 186 216 251 242 236 241 264 304 338 353 354 2 25 62 119 138 41 30 34 36 33 32 41 54 62 64 64 67 71 73 74 77 80 78 78 85 97 107 114 115 111 104 96 90 85 82 77 70 64 60 56 55 60 68 81 99 110 114 117 120 125 131 138 144 152 159 163 165 167 171 175 179 184 190 195 199 203 207 209 211 212
221 225 230 224 208 200 207 257 275 265 257 257 271 302 335 351 359 9 20 35 84 151 168 20 35 41 34 29 38 56 68 73 74 73 76 79 78 78 79 80 78 78 83 93 103 107 106 104 101 97 93 90 87 81 74 69 65 64 63 65 72 88 105 115 120 126 132 139 143 149 157 164 169 173 177 181 185 189 194 200 206 210 215 220 222 221 220
233 234 233 228 225 228 238 255 270 274 269 264 268 292 335 353 356 357 4 19 51 124 173 263 27 47 45 39 43 54 63 70 73 73 76 83 85 82 79 79 76 72 71 74 80 87 90 90 89 88 86 84 84 84 82 82 81 79 77 77 78 81 88 98 108 119 135 147 154 160 169 176 182 188 193 198 203 207 213 220 227 232 237 240 239 233 225
247 249 243 234 234 240 241 235 239 264 277 267 260 269 310 343 353 354 354 17 46 86 151 193 36 57 63 60 59 63 66 71 76 77 76 81 87 86 84 79 71 63 60 60 64 72 77 78 77 79 79 76 73 72 73 76 80 83 86 89 92 92 93 95 102 114 134 154 166 178 189 198 207 211 212 213 217 220 224 228 232 233 234 234 228 216 208
257 262 260 250 245 243 236 228 234 262 277 259 245 252 279 309 334 348 20 96 81 74 95 141 48 49 62 65 67 68 71 76 83 84 79 77 80 82 82 80 73 64 58 54 56 61 65 66 68 71 73 73 74 74 71 69 71 73 75 81 93 105 112 118 124 127 130 135 140 152 169 185 195 198 199 201 201 194 184 182 183 182 182 185 189 190 193
265 261 261 265 264 254 239 231 235 250 259 248 243 251 264 276 300 316 269 126 96 72 75 89 58 38 48 58 66 75 83 88 92 93 88 83 79 77 75 74 71 65 61 59 60 61 60 60 62 64 65 63 63 64 64 67 67 64 62 61 64 63 60 54 56 64 74 79 84 86 97 121 143 154 156 151 145 140 139 140 136 132 137 149 162 177 188
272 267 264 270 276 270 252 236 232 237 244 246 246 249 254 261 276 274 229 183 129 82 76 75 61 47 46 48 59 80 92 93 95 98 97 93 88 81 76 73 68 62 57 55 56 58 59 58 59 62 65 64 61 55 53 53 54 55 58 61 60 51 41 34 29 28 30 36 42 50 63 83 104 119 121 120 119 114 109 103 97 94 96 96 93 99 135
271 276 272 268 268 269 263 247 236 233 234 235 238 243 248 252 255 247 227 212 195 165 127 59 42 53 74 69 67 78 87 88 91 94 95 93 90 85 79 73 69 65 61 57 56 57 58 57 57 58 61 64 67 65 59 51 45 43 44 48 49 46 42 41 40 40 37 32 32 46 63 69 68 68 77 91 101 100 93 87 82 78 75 73 72 72 73
261 265 266 263 261 262 263 259 251 242 233 227 229 237 242 240 240 240 235 224 209 202 214 247 297 335 84 112 101 92 94 97 97 94 92 94 95 93 86 76 68 65 65 64 62 60 58 57 55 56 56 58 62 65 65 63 62 58 52 49 48 46 43 43 45 48 52 57 68 84 87 76 61 53 60 72 82 86 83 78 72 68 66 67 69 70 69
253 257 263 265 264 264 264 266 267 261 243 230 227 231 237 240 242 245 240 226 213 210 218 232 247 258 234 155 148 144 132 123 116 108 104 105 105 102 96 90 82 76 75 75 72 70 67 63 60 58 56 57 60 61 60 61 63 64 63 61 58 52 47 45 44 48 59 74 90 101 101 87 66 57 66 75 81 83 78 73 71 71 66 62 61 64 64
255 260 265 265 263 264 264 264 267 268 259 243 233 231 235 239 240 237 232 226 221 218 220 228 240 251 253 223 191 176 157 143 136 129 121 115 110 106 104 103 102 97 91 85 80 76 72 68 65 61 58 58 60 62 61 59 57 55 54 55 54 53 53 56 61 67 77 89 97 101 97 82 50 43 57 68 78 80 76 71 72 74 69 61 57 58 58